SCP
-0 -0 -0 0 0 0 0 0 0 0 0 0 0 -0 -0 -0 -0 -0 -0 -0 -0 0 0 -0 -0 -0 -0 -0 -0 -0 -0 -0
-0 -0 -0 0 0 0 0 0 0 0 0 0 -0 -0 -0 -0 -0 -0 -0 -0 -0 -0 -0 0 -0 -0 -0 -0 -0 -0 -0 -0
-0 -0 -0 0 0 0 -0 -0 0 0 0 0 0 -0 -0 0 0 0 -0 -0 -0 -0 -0 -0 -0 -0 -0 -0 -0 -0 -0 -0
-0 -0 -0 -0 0 -0 -0 -0 -0 -0 -0 -0 0 0 0 0 -0 -0 -0 -0 -0 -0 -0 -0 -0 -0 -0 -0 -0 -0 -0 -0
-0 -0 -0 0 -0 0 0 -0 -0 -0 -0 -0 -0 -0 -0 -0 -0 -0 -0 0 0 -0 -0 -0 -0 0 0 -0 -0 -0 -0 -0
-0 -0 -0 -0 0 0 -0 -0 0 -0 -0 -0 0 -0 -0 -0 -0 -0 0 0 -0 -0 -0 -0 0 0 -0 -0 -0 -0 -0 0
-0 -0 -0 0 -0 -0 0 -0 0 -0 -0 -0 -0 -0 0 0 0 0 0 -0 -0 -0 -0 -0 -0 -0 -0 0 0 -0 0 0
-0 0 -0 -0 -0 -0 0 0 0 0 0 0 0 -0 0 0 0 0 0 0 0 -0 0 -0 -0 0 -0 0 0 0 0 -0
0 0 0 0 0 -0 0 0 0 0 0 0 0 0 0 0 0 0 0 0 0 0 0 0 0 0 0 0 0 0 0 0
0 0 0 0 0 0 0 0 0 0 0 0 0 0 0 0 0 0 0 0 0 0 0 0 0 0 0 0 0 0 0 0
0 0 0 0 0 0 0 0 0 0 0 0 0 0 0 0 0 0 0 0 0 0 0 0 0 0 0 0 0 0 0 0
0 0 0 0 0 0 0 0 0 0 0 0 0 0 0 0 0 0 0 0 0 0 0 0 0 0 0 0 0 0 0 0
0 0 0 0 0 0 0 0 0 0 0 0 0 0 0 0 0 0 0 0 0 0 0 0 0 0 0 0 0 0 0 0
0 0 0 0 0 0 0 0 0 0 0 0 0 0 0 0 0 0 0 0 0 0 0 0 0 0 0 0 0 0 0 0
0 0 0 0 0 0 0 0 0 0 0 0 0 0 0 0 0 0 0 0 0 0 0 0 0 0 0 0 0 0 0 0
0 0 0 0 0 0 0 0 0 0 0 0 0 0 0 0 0 0 0 0 0 0 0 0 0 0 0 0 0 0 0 0
0 0 0 0 0 0 0 0 0 0 0 0 0 0 0 0 0 0 0 0 0 0 0 0 0 0 0 0 0 0 0 0
0 0 0 0 0 0 0 0 0 0 0 0 0 0 0 0 0 0 0 0 0 0 0 0 0 0 0 0 0 0 0 0
0 0 0 0 0 0 0 0 0 0 0 0 0 0 0 0 0 0 0 0 0 0 0 0 0 0 0 0 0 0 0 0
Wind_Speed_500mb
31 29 35 35 34 32 32 33 32 29 27 26 26 25 22 19 16 12 10 9 10 8 8 7 9 10 12 15 18 19 21 20
31 29 33 36 34 34 34 34 31 27 25 24 23 22 18 15 12 9 6 5 5 4 6 6 7 9 11 13 15 15 17 18
34 30 30 36 36 35 34 34 31 26 25 23 21 19 17 13 9 5 3 2 3 5 8 10 11 11 10 12 13 15 16 16
36 30 30 32 35 35 35 33 31 26 24 22 20 17 13 10 7 4 1 2 5 9 11 12 12 12 12 12 13 13 18 18
31 27 28 28 25 26 29 33 32 28 25 21 18 13 11 6 1 2 5 6 6 8 10 10 11 11 11 13 15 15 15 7
31 31 29 25 27 24 21 26 28 25 22 18 15 11 11 6 6 11 12 9 9 9 9 9 10 11 13 15 19 25 14 7
33 31 29 28 26 24 26 18 19 14 12 6 8 13 7 12 13 13 13 17 18 14 16 16 15 13 15 12 15 19 17 12
31 28 27 26 25 22 19 19 15 17 16 17 14 13 11 10 10 10 12 16 15 21 13 20 21 14 12 13 13 17 17 14
34 32 31 29 29 28 21 23 19 20 19 15 13 14 9 8 12 11 11 11 12 11 14 12 11 17 15 17 16 19 19 18
32 31 28 26 24 25 26 20 20 21 18 20 15 16 11 11 16 11 15 9 11 11 11 12 14 15 16 16 17 18 16 18
31 30 30 27 26 22 22 23 22 20 31 17 15 19 23 13 24 10 10 10 11 12 13 15 18 19 18 18 20 20 21 20
31 30 26 28 25 29 27 22 19 16 18 16 18 25 27 26 25 23 9 9 19 20 22 21 20 19 20 20 24 22 21 17
29 26 26 23 25 26 24 22 17 17 16 14 13 18 22 24 24 18 14 24 25 24 25 27 25 22 20 20 21 18 15 13
30 27 24 25 23 22 25 21 20 22 13 12 12 15 24 23 22 22 27 31 29 28 28 33 28 22 17 18 15 13 11 4
30 29 32 24 32 32 25 19 16 15 13 11 15 25 23 24 25 20 26 29 28 35 30 26 21 15 15 16 9 9 2 4
35 34 36 34 31 25 22 17 16 15 15 15 23 22 24 24 25 25 16 20 19 21 17 13 7 9 10 6 12 5 3 8
38 39 34 31 38 32 21 24 22 22 15 22 23 22 25 24 21 25 18 15 12 4 7 5 5 9 9 10 4 7 14 8
38 37 35 33 33 29 27 35 35 26 18 12 14 15 21 18 16 15 17 10 12 10 7 6 11 14 12 15 12 6 5 1
38 34 31 32 31 29 34 20 21 15 13 15 10 11 10 13 14 12 11 9 8 5 7 6 10 17 20 15 13 15 9 6
Wind_Direction_500mb
140 148 153 148 148 150 151 150 145 140 138 137 137 139 139 137 131 116 97 76 72 74 73 54 47 46 42 36 37 49 58 84
145 151 156 154 155 157 158 158 155 150 146 147 148 147 149 145 139 122 108 88 79 33 24 12 13 19 27 36 37 40 36 61
148 144 160 161 162 165 165 165 165 163 158 157 158 157 159 157 147 140 129 88 16 10 356 348 351 359 9 21 26 24 28 24
142 161 155 165 170 170 172 172 176 174 171 172 172 172 168 166 163 177 187 332 350 352 350 349 350 357 4 15 20 24 23 47
158 157 148 163 170 168 182 181 181 183 183 185 186 185 178 151 183 331 313 305 339 352 0 9 13 16 19 18 14 9 8 54
163 156 170 159 172 170 180 198 191 189 189 193 198 199 179 59 306 320 279 296 324 346 355 358 7 17 17 14 7 8 21 342
164 169 172 169 175 169 178 206 182 203 197 199 222 241 209 241 213 205 285 325 320 326 343 346 342 358 7 318 303 338 347 327
169 173 176 174 178 181 179 189 190 204 196 222 219 222 239 228 268 295 286 308 351 329 321 329 320 330 292 299 290 293 296 305
169 176 178 184 181 177 193 189 197 194 206 203 226 234 252 255 262 259 260 266 297 285 299 301 295 293 312 300 298 287 285 288
171 176 175 182 180 188 180 194 194 199 198 212 216 234 202 232 241 251 253 275 276 287 293 297 297 292 304 304 290 285 291 287
172 172 180 173 181 184 179 188 194 184 205 193 196 219 222 216 235 248 276 279 285 298 294 299 292 301 294 295 291 291 292 292
170 174 177 178 178 182 194 184 177 178 182 186 218 228 230 227 242 232 247 264 268 283 289 294 296 298 299 292 284 293 292 289
178 175 173 180 189 179 183 178 176 176 176 182 204 229 232 238 244 233 248 256 270 280 288 285 294 301 297 285 290 293 285 284
180 183 178 174 176 180 192 181 182 196 170 188 201 229 230 236 239 246 259 271 283 279 281 284 285 289 307 301 307 299 280 294
185 188 188 180 193 201 184 183 177 180 178 187 214 236 238 247 250 245 266 267 269 273 274 278 277 294 316 309 302 255 186 133
194 198 213 201 216 209 212 202 195 191 196 223 245 246 247 251 256 251 268 270 263 259 266 265 239 336 338 352 29 234 222 110
204 201 199 200 215 206 199 190 199 199 194 224 240 248 253 257 256 251 248 246 199 257 223 202 176 115 13 14 5 244 201 180
197 196 195 199 220 196 199 202 203 217 234 231 243 244 253 255 255 248 233 215 184 169 178 164 115 143 57 22 39 112 254 65
200 197 194 193 197 192 201 199 195 195 207 192 168 207 233 242 238 225 207 203 195 154 151 137 121 97 99 62 24 38 81 79
Wind_Speed_850mb
31 29 35 35 34 32 32 33 32 29 27 26 26 25 22 19 16 12 10 9 10 8 8 7 9 10 12 15 18 19 21 20
31 29 33 36 34 34 34 34 31 27 25 24 23 22 18 15 12 9 6 5 5 4 6 6 7 9 11 13 15 15 17 18
34 30 30 36 36 35 34 34 31 26 25 23 21 19 17 13 9 5 3 2 3 5 8 10 11 11 10 12 13 15 16 16
36 30 30 32 35 35 35 33 31 26 24 22 20 17 13 10 7 4 1 2 5 9 11 12 12 12 12 12 13 13 18 18
31 27 28 28 25 26 29 33 32 28 25 21 18 13 11 6 1 2 5 6 6 8 10 10 11 11 11 13 15 15 15 7
31 31 29 25 27 24 21 26 28 25 22 18 15 11 11 6 6 11 12 9 9 9 9 9 10 11 13 15 19 25 14 7
33 31 29 28 26 24 26 18 19 14 12 6 8 13 7 12 13 13 13 17 18 14 16 16 15 13 15 12 15 19 17 12
31 28 27 26 25 22 19 19 15 17 16 17 14 13 11 10 10 10 12 16 15 21 13 20 21 14 12 13 13 17 17 14
34 32 31 29 29 28 21 23 19 20 19 15 13 14 9 8 12 11 11 11 12 11 14 12 11 17 15 17 16 19 19 18
32 31 28 26 24 25 26 20 20 21 18 20 15 16 11 11 16 11 15 9 11 11 11 12 14 15 16 16 17 18 16 18
31 30 30 27 26 22 22 23 22 20 31 17 15 19 23 13 24 10 10 10 11 12 13 15 18 19 18 18 20 20 21 20
31 30 26 28 25 29 27 22 19 16 18 16 18 25 27 26 25 23 9 9 19 20 22 21 20 19 20 20 24 22 21 17
29 26 26 23 25 26 24 22 17 17 16 14 13 18 22 24 24 18 14 24 25 24 25 27 25 22 20 20 21 18 15 13
30 27 24 25 23 22 25 21 20 22 13 12 12 15 24 23 22 22 27 31 29 28 28 33 28 22 17 18 15 13 11 4
30 29 32 24 32 32 25 19 16 15 13 11 15 25 23 24 25 20 26 29 28 35 30 26 21 15 15 16 9 9 2 4
35 34 36 34 31 25 22 17 16 15 15 15 23 22 24 24 25 25 16 20 19 21 17 13 7 9 10 6 12 5 3 8
38 39 34 31 38 32 21 24 22 22 15 22 23 22 25 24 21 25 18 15 12 4 7 5 5 9 9 10 4 7 14 8
38 37 35 33 33 29 27 35 35 26 18 12 14 15 21 18 16 15 17 10 12 10 7 6 11 14 12 15 12 6 5 1
38 34 31 32 31 29 34 20 21 15 13 15 10 11 10 13 14 12 11 9 8 5 7 6 10 17 20 15 13 15 9 6
Wind_Direction_850mb
140 148 153 148 148 150 151 150 145 140 138 137 137 139 139 137 131 116 97 76 72 74 73 54 47 46 42 36 37 49 58 84
145 151 156 154 155 157 158 158 155 150 146 147 148 147 149 145 139 122 108 88 79 33 24 12 13 19 27 36 37 40 36 61
148 144 160 161 162 165 165 165 165 163 158 157 158 157 159 157 147 140 129 88 16 10 356 348 351 359 9 21 26 24 28 24
142 161 155 165 170 170 172 172 176 174 171 172 172 172 168 166 163 177 187 332 350 352 350 349 350 357 4 15 20 24 23 47
158 157 148 163 170 168 182 181 181 183 183 185 186 185 178 151 183 331 313 305 339 352 0 9 13 16 19 18 14 9 8 54
163 156 170 159 172 170 180 198 191 189 189 193 198 199 179 59 306 320 279 296 324 346 355 358 7 17 17 14 7 8 21 342
164 169 172 169 175 169 178 206 182 203 197 199 222 241 209 241 213 205 285 325 320 326 343 346 342 358 7 318 303 338 347 327
169 173 176 174 178 181 179 189 190 204 196 222 219 222 239 228 268 295 286 308 351 329 321 329 320 330 292 299 290 293 296 305
169 176 178 184 181 177 193 189 197 194 206 203 226 234 252 255 262 259 260 266 297 285 299 301 295 293 312 300 298 287 285 288
171 176 175 182 180 188 180 194 194 199 198 212 216 234 202 232 241 251 253 275 276 287 293 297 297 292 304 304 290 285 291 287
172 172 180 173 181 184 179 188 194 184 205 193 196 219 222 216 235 248 276 279 285 298 294 299 292 301 294 295 291 291 292 292
170 174 177 178 178 182 194 184 177 178 182 186 218 228 230 227 242 232 247 264 268 283 289 294 296 298 299 292 284 293 292 289
178 175 173 180 189 179 183 178 176 176 176 182 204 229 232 238 244 233 248 256 270 280 288 285 294 301 297 285 290 293 285 284
180 183 178 174 176 180 192 181 182 196 170 188 201 229 230 236 239 246 259 271 283 279 281 284 285 289 307 301 307 299 280 294
185 188 188 180 193 201 184 183 177 180 178 187 214 236 238 247 250 245 266 267 269 273 274 278 277 294 316 309 302 255 186 133
194 198 213 201 216 209 212 202 195 191 196 223 245 246 247 251 256 251 268 270 263 259 266 265 239 336 338 352 29 234 222 110
204 201 199 200 215 206 199 190 199 199 194 224 240 248 253 257 256 251 248 246 199 257 223 202 176 115 13 14 5 244 201 180
197 196 195 199 220 196 199 202 203 217 234 231 243 244 253 255 255 248 233 215 184 169 178 164 115 143 57 22 39 112 254 65
200 197 194 193 197 192 201 199 195 195 207 192 168 207 233 242 238 225 207 203 195 154 151 137 121 97 99 62 24 38 81 79